Location: Haulchin
(50.3172°N, 3.4360°E)
Time: 06:37:24
(UTC+00:00)

Cosmos 2333 Rocket - Pass Details

Date: 10 August 2024
Orbit: 839 x 863 km, 70.8° (Epoch: 16 September)

Event Time Altitude Azimuth Distance (km) Brightness Sun altitude
Exits shadow 01:21:26 41° 227° (SW) 1,224 2.6 -21.3°
Maximum altitude 01:23:29 74° 302° (WNW) 900 2.3 -21.2°
Drops below altitude 10° 01:29:16 10° 27° (NNE) 2,513 5.9 -20.8°
Sets 01:31:46 0° 30° (NNE) 3,454 7.0 -20.6°
